Time,TemperatureF,DewpointF,PressureIn,WindDirection,WindDirectionDegrees,WindSpeedMPH,WindSpeedGustMPH,Humidity,HourlyPrecipIn,Conditions,Clouds,dailyrainin,SolarRadiationWatts/m^2,SoftwareType,DateUTC
2013-03-07 00:02:00,29.0,24.0,-100.00,North,6,6.0,14.0,81,0.00,,,0.00,0.000000,,2013-03-07 06:02:00,
2013-03-07 00:32:00,28.0,23.0,-100.00,North,359,6.0,16.0,82,0.00,,,0.00,0.000000,,2013-03-07 06:32:00,
2013-03-07 00:42:00,28.0,23.0,-100.00,North,359,6.0,16.0,82,0.00,,,0.00,0.000000,,2013-03-07 06:42:00,
2013-03-07 00:52:00,28.0,23.0,-100.00,North,359,6.0,16.0,82,0.00,,,0.00,0.000000,,2013-03-07 06:52:00,
2013-03-07 01:01:00,28.0,23.0,-100.00,North,359,6.0,16.0,82,0.00,,,0.00,0.000000,,2013-03-07 07:01:00,
2013-03-07 01:32:00,28.0,24.0,-100.00,North,360,7.0,14.0,83,0.00,,,0.00,0.000000,,2013-03-07 07:32:00,
2013-03-07 01:43:00,28.0,24.0,-100.00,North,360,7.0,14.0,83,0.00,,,0.00,0.000000,,2013-03-07 07:43:00,
2013-03-07 01:53:00,28.0,24.0,-100.00,North,360,7.0,14.0,83,0.00,,,0.00,0.000000,,2013-03-07 07:53:00,
2013-03-07 02:03:00,28.0,24.0,-100.00,North,360,7.0,14.0,83,0.00,,,0.00,0.000000,,2013-03-07 08:03:00,
2013-03-07 02:34:00,28.0,24.0,-100.00,North,5,3.0,14.0,86,0.00,,,0.00,0.000000,,2013-03-07 08:34:00,
2013-03-07 02:45:00,28.0,24.0,-100.00,North,5,3.0,14.0,86,0.00,,,0.00,0.000000,,2013-03-07 08:45:00,
2013-03-07 02:54:00,28.0,24.0,-100.00,North,5,3.0,14.0,86,0.00,,,0.00,0.000000,,2013-03-07 08:54:00,
2013-03-07 03:03:00,28.0,24.0,-100.00,North,5,3.0,14.0,86,0.00,,,0.00,0.000000,,2013-03-07 09:03:00,
2013-03-07 03:33:00,27.0,23.0,-100.00,NNE,22,6.0,13.0,86,0.00,,,0.00,0.000000,,2013-03-07 09:33:00,
2013-03-07 03:43:00,27.0,23.0,-100.00,NNE,22,6.0,13.0,86,0.00,,,0.00,0.000000,,2013-03-07 09:43:00,
2013-03-07 03:53:00,27.0,23.0,-100.00,NNE,22,6.0,13.0,86,0.00,,,0.00,0.000000,,2013-03-07 09:53:00,
2013-03-07 04:04:00,27.0,23.0,-100.00,NNE,22,6.0,13.0,86,0.00,,,0.00,0.000000,,2013-03-07 10:04:00,
2013-03-07 04:33:00,27.0,24.0,-100.00,North,0,4.0,11.0,87,0.00,,,0.00,0.000000,,2013-03-07 10:33:00,
2013-03-07 04:43:00,27.0,24.0,-100.00,North,0,4.0,11.0,87,0.00,,,0.00,0.000000,,2013-03-07 10:43:00,
2013-03-07 04:53:00,27.0,24.0,-100.00,North,0,4.0,11.0,87,0.00,,,0.00,0.000000,,2013-03-07 10:53:00,
2013-03-07 05:03:00,27.0,24.0,-100.00,North,0,4.0,11.0,87,0.00,,,0.00,0.000000,,2013-03-07 11:03:00,
2013-03-07 05:34:00,27.0,24.0,-100.00,NNE,24,4.0,12.0,87,0.00,,,0.00,0.000000,,2013-03-07 11:34:00,
2013-03-07 05:55:00,27.0,24.0,-100.00,NNE,24,4.0,12.0,87,0.00,,,0.00,0.000000,,2013-03-07 11:55:00,
2013-03-07 06:04:00,27.0,24.0,-100.00,NNE,24,4.0,12.0,87,0.00,,,0.00,0.000000,,2013-03-07 12:04:00,
2013-03-07 06:34:00,27.0,24.0,-100.00,NNE,33,6.0,13.0,87,0.00,,,0.00,0.000000,,2013-03-07 12:34:00,
2013-03-07 06:43:00,27.0,24.0,-100.00,NNE,33,6.0,13.0,87,0.00,,,0.00,0.000000,,2013-03-07 12:43:00,
2013-03-07 06:53:00,27.0,24.0,-100.00,NNE,33,6.0,13.0,87,0.00,,,0.00,0.000000,,2013-03-07 12:53:00,
2013-03-07 07:03:00,27.0,24.0,-100.00,NNE,33,6.0,13.0,87,0.00,,,0.00,0.000000,,2013-03-07 13:03:00,
2013-03-07 08:34:00,29.0,24.0,-100.00,North,7,4.0,12.0,82,-99.99,,,0.00,98.000000,,2013-03-07 14:34:00,
2013-03-07 08:43:00,29.0,24.0,-100.00,North,7,4.0,12.0,82,-99.99,,,0.00,98.000000,,2013-03-07 14:43:00,
2013-03-07 08:54:00,29.0,24.0,-100.00,North,7,4.0,12.0,82,-99.99,,,0.00,98.000000,,2013-03-07 14:54:00,
2013-03-07 09:03:00,29.0,24.0,-100.00,North,7,4.0,12.0,82,-99.99,,,0.00,98.000000,,2013-03-07 15:03:00,
2013-03-07 09:33:00,32.0,25.0,-100.00,NNE,17,6.0,13.0,75,0.00,,,0.00,350.000000,,2013-03-07 15:33:00,
2013-03-07 09:43:00,32.0,25.0,-100.00,NNE,17,6.0,13.0,75,0.00,,,0.00,350.000000,,2013-03-07 15:43:00,
2013-03-07 09:53:00,32.0,25.0,-100.00,NNE,17,6.0,13.0,75,0.00,,,0.00,350.000000,,2013-03-07 15:53:00,
2013-03-07 10:02:00,32.0,25.0,-100.00,NNE,17,6.0,13.0,75,0.00,,,0.00,350.000000,,2013-03-07 16:02:00,
2013-03-07 10:33:00,37.0,27.0,-100.00,North,8,4.0,12.0,66,0.00,,,0.00,578.000000,,2013-03-07 16:33:00,
2013-03-07 10:43:00,37.0,27.0,-100.00,North,8,4.0,12.0,66,0.00,,,0.00,578.000000,,2013-03-07 16:43:00,
2013-03-07 10:53:00,37.0,27.0,-100.00,North,8,4.0,12.0,66,0.00,,,0.00,578.000000,,2013-03-07 16:53:00,
2013-03-07 11:03:00,37.0,27.0,-100.00,North,8,4.0,12.0,66,0.00,,,0.00,578.000000,,2013-03-07 17:03:00,
2013-03-07 11:34:00,39.0,25.0,-100.00,NNE,14,1.0,11.0,58,0.00,,,0.00,653.000000,,2013-03-07 17:34:00,
2013-03-07 11:44:00,39.0,25.0,-100.00,NNE,14,1.0,11.0,58,0.00,,,0.00,653.000000,,2013-03-07 17:44:00,
2013-03-07 11:55:00,39.0,25.0,-100.00,NNE,14,1.0,11.0,58,0.00,,,0.00,653.000000,,2013-03-07 17:55:00,
2013-03-07 12:04:00,39.0,25.0,-100.00,NNE,14,1.0,11.0,58,0.00,,,0.00,653.000000,,2013-03-07 18:04:00,
2013-03-07 12:33:00,43.0,28.0,-100.00,North,350,5.0,11.0,55,0.00,,,0.00,746.000000,,2013-03-07 18:33:00,
2013-03-07 12:43:00,43.0,28.0,-100.00,North,350,5.0,11.0,55,0.00,,,0.00,746.000000,,2013-03-07 18:43:00,
2013-03-07 12:53:00,43.0,28.0,-100.00,North,350,5.0,11.0,55,0.00,,,0.00,746.000000,,2013-03-07 18:53:00,
2013-03-07 13:03:00,43.0,28.0,-100.00,North,350,5.0,11.0,55,0.00,,,0.00,746.000000,,2013-03-07 19:03:00,
2013-03-07 13:35:00,46.0,26.0,-100.00,NNW,327,5.0,10.0,46,0.00,,,0.00,747.000000,,2013-03-07 19:35:00,
2013-03-07 13:44:00,46.0,26.0,-100.00,NNW,327,5.0,10.0,46,0.00,,,0.00,747.000000,,2013-03-07 19:44:00,
2013-03-07 13:53:00,46.0,26.0,-100.00,NNW,327,5.0,10.0,46,0.00,,,0.00,747.000000,,2013-03-07 19:53:00,
2013-03-07 14:02:00,46.0,26.0,-100.00,NNW,327,5.0,10.0,46,0.00,,,0.00,747.000000,,2013-03-07 20:02:00,
2013-03-07 14:34:00,48.0,27.0,-100.00,North,355,3.0,12.0,43,0.00,,,0.00,666.000000,,2013-03-07 20:34:00,
2013-03-07 14:43:00,48.0,27.0,-100.00,North,355,3.0,12.0,43,0.00,,,0.00,666.000000,,2013-03-07 20:43:00,
2013-03-07 14:54:00,48.0,27.0,-100.00,North,355,3.0,12.0,43,0.00,,,0.00,666.000000,,2013-03-07 20:54:00,
2013-03-07 15:03:00,48.0,27.0,-100.00,North,355,3.0,12.0,43,0.00,,,0.00,666.000000,,2013-03-07 21:03:00,
2013-03-07 15:33:00,49.0,28.0,-100.00,North,352,5.0,11.0,44,0.00,,,0.00,529.000000,,2013-03-07 21:33:00,
2013-03-07 15:43:00,49.0,28.0,-100.00,North,352,5.0,11.0,44,0.00,,,0.00,529.000000,,2013-03-07 21:43:00,
2013-03-07 15:53:00,49.0,28.0,-100.00,North,352,5.0,11.0,44,0.00,,,0.00,529.000000,,2013-03-07 21:53:00,
2013-03-07 16:02:00,49.0,28.0,-100.00,North,352,5.0,11.0,44,0.00,,,0.00,529.000000,,2013-03-07 22:02:00,
2013-03-07 16:33:00,48.0,29.0,-100.00,North,355,0.0,13.0,48,0.00,,,0.00,354.000000,,2013-03-07 22:33:00,
2013-03-07 16:43:00,48.0,29.0,-100.00,North,355,0.0,13.0,48,0.00,,,0.00,354.000000,,2013-03-07 22:43:00,
2013-03-07 16:55:00,48.0,29.0,-100.00,North,355,0.0,13.0,48,0.00,,,0.00,354.000000,,2013-03-07 22:55:00,
2013-03-07 17:03:00,48.0,29.0,-100.00,North,355,0.0,13.0,48,0.00,,,0.00,354.000000,,2013-03-07 23:03:00,
2013-03-07 17:35:00,41.0,28.0,-100.00,ESE,117,5.0,9.0,59,0.00,,,0.00,159.000000,,2013-03-07 23:35:00,
2013-03-07 17:44:00,41.0,28.0,-100.00,ESE,117,5.0,9.0,59,0.00,,,0.00,159.000000,,2013-03-07 23:44:00,
2013-03-07 17:54:00,41.0,28.0,-100.00,ESE,117,5.0,9.0,59,0.00,,,0.00,159.000000,,2013-03-07 23:54:00,
2013-03-07 18:04:00,41.0,28.0,-100.00,ESE,117,5.0,9.0,59,0.00,,,0.00,159.000000,,2013-03-08 00:04:00,
2013-03-07 18:35:00,38.0,28.0,-100.00,ESE,117,0.0,9.0,67,0.00,,,0.00,16.000000,,2013-03-08 00:35:00,
2013-03-07 18:44:00,38.0,28.0,-100.00,ESE,117,0.0,9.0,67,0.00,,,0.00,16.000000,,2013-03-08 00:44:00,
2013-03-07 18:54:00,38.0,28.0,-100.00,ESE,117,0.0,9.0,67,0.00,,,0.00,16.000000,,2013-03-08 00:54:00,
2013-03-07 19:02:00,38.0,28.0,-100.00,ESE,117,0.0,9.0,67,0.00,,,0.00,16.000000,,2013-03-08 01:02:00,
2013-03-07 19:33:00,35.0,27.0,-100.00,NNE,30,3.0,9.0,73,0.00,,,0.00,0.000000,,2013-03-08 01:33:00,
2013-03-07 19:42:00,35.0,27.0,-100.00,NNE,30,3.0,9.0,73,0.00,,,0.00,0.000000,,2013-03-08 01:42:00,
2013-03-07 19:52:00,35.0,27.0,-100.00,NNE,30,3.0,9.0,73,0.00,,,0.00,0.000000,,2013-03-08 01:52:00,
2013-03-07 20:02:00,35.0,27.0,-100.00,NNE,30,3.0,9.0,73,0.00,,,0.00,0.000000,,2013-03-08 02:02:00,
2013-03-07 20:32:00,32.0,26.0,-100.00,NE,50,3.0,9.0,78,0.00,,,0.00,0.000000,,2013-03-08 02:32:00,
2013-03-07 20:42:00,32.0,26.0,-100.00,NE,50,3.0,9.0,78,0.00,,,0.00,0.000000,,2013-03-08 02:42:00,
2013-03-07 20:53:00,32.0,26.0,-100.00,NE,50,3.0,9.0,78,0.00,,,0.00,0.000000,,2013-03-08 02:53:00,
2013-03-07 21:02:00,32.0,26.0,-100.00,NE,50,3.0,9.0,78,0.00,,,0.00,0.000000,,2013-03-08 03:02:00,
2013-03-07 21:33:00,30.0,25.0,-100.00,NE,45,2.0,9.0,83,0.00,,,0.00,0.000000,,2013-03-08 03:33:00,
2013-03-07 21:43:00,30.0,25.0,-100.00,NE,45,2.0,9.0,83,0.00,,,0.00,0.000000,,2013-03-08 03:43:00,
2013-03-07 21:53:00,30.0,25.0,-100.00,NE,45,2.0,9.0,83,0.00,,,0.00,0.000000,,2013-03-08 03:53:00,
2013-03-07 22:02:00,30.0,25.0,-100.00,NE,45,2.0,9.0,83,0.00,,,0.00,0.000000,,2013-03-08 04:02:00,
2013-03-07 22:32:00,29.0,25.0,-100.00,NE,50,5.0,12.0,85,0.00,,,0.00,0.000000,,2013-03-08 04:32:00,
2013-03-07 22:42:00,29.0,25.0,-100.00,NE,50,5.0,12.0,85,0.00,,,0.00,0.000000,,2013-03-08 04:42:00,
2013-03-07 22:52:00,29.0,25.0,-100.00,NE,50,5.0,12.0,85,0.00,,,0.00,0.000000,,2013-03-08 04:52:00,
2013-03-07 23:02:00,29.0,25.0,-100.00,NE,50,5.0,12.0,85,0.00,,,0.00,0.000000,,2013-03-08 05:02:00,
2013-03-07 23:33:00,28.0,25.0,-100.00,NE,48,6.0,13.0,87,0.00,,,0.00,0.000000,,2013-03-08 05:33:00,
2013-03-07 23:42:00,28.0,25.0,-100.00,NE,48,6.0,13.0,87,0.00,,,0.00,0.000000,,2013-03-08 05:42:00,
2013-03-07 23:52:00,28.0,25.0,-100.00,NE,48,6.0,13.0,87,0.00,,,0.00,0.000000,,2013-03-08 05:52:00,